| time (UTC) | temp F | wind direction | speed MPH | gust MPH | rain 1hr in | rain 24hr in | rain mn in | humidity % | barometer mb |
| 20260508043735 | 53 | 0 | 0.0 | 0.0 | 0.00 | 0.00 | 0.00 | 30 | 1012.2 |
| 20260508042741 | 54 | 0 | 0.0 | 0.0 | 0.00 | 0.00 | 0.00 | 29 | 1012.2 |
| 20260508041734 | 55 | 0 | 0.0 | 1.0 | 0.00 | 0.00 | 0.00 | 29 | 1012.3 |
| 20260508035632 | 56 | 0 | 0.0 | 0.0 | 0.00 | 0.00 | 0.00 | 27 | 1012.2 |
| 20260508033513 | 57 | 0 | 0.0 | 7.0 | 0.00 | 0.00 | 0.00 | 27 | 1011.9 |
| 20260508032441 | 56 | 0 | 0.0 | 4.0 | 0.00 | 0.00 | 0.00 | 28 | 1011.8 |
| 20260508030319 | 55 | 0 | 0.0 | 0.0 | 0.00 | 0.00 | 0.00 | 27 | 1011.6 |
| 20260508025341 | 56 | 0 | 0.0 | 0.0 | 0.00 | 0.00 | 0.00 | 27 | 1011.6 |
| 20260508024407 | 56 | 0 | 0.0 | 0.0 | 0.00 | 0.00 | 0.00 | 26 | 1011.6 |
| 20260508023429 | 57 | 0 | 0.0 | 0.0 | 0.00 | 0.00 | 0.00 | 26 | 1011.4 |
| 20260508022442 | 58 | 0 | 0.0 | 0.0 | 0.00 | 0.00 | 0.00 | 25 | 1011.4 |
| 20260508021417 | 59 | 0 | 0.0 | 0.0 | 0.00 | 0.00 | 0.00 | 23 | 1011.4 |
| 20260508020442 | 60 | 0 | 0.0 | 0.0 | 0.00 | 0.00 | 0.00 | 23 | 1011.4 |
| 20260508015442 | 61 | 0 | 0.0 | 1.0 | 0.00 | 0.00 | 0.00 | 22 | 1011.4 |
| 20260508014430 | 62 | 0 | 1.0 | 12.0 | 0.00 | 0.00 | 0.00 | 22 | 1011.4 |
| 20260508011139 | 64 | 0 | 10.0 | 17.0 | 0.00 | 0.00 | 0.00 | 20 | 1011.1 |
| 20260508004937 | 67 | 0 | 10.0 | 17.0 | 0.00 | 0.00 | 0.00 | 19 | 1011.1 |
| 20260508003909 | 68 | 331 | 10.0 | 19.0 | 0.00 | 0.00 | 0.00 | 19 | 1011.1 |
| 20260508002854 | 68 | 0 | 8.0 | 20.0 | 0.00 | 0.00 | 0.00 | 19 | 1011.1 |
| 20260508001825 | 68 | 0 | 10.0 | 20.0 | 0.00 | 0.00 | 0.00 | 18 | 1011.3 |
| 20260508000839 | 68 | 0 | 7.0 | 18.0 | 0.00 | 0.00 | 0.00 | 18 | 1011.4 |
| 20260507235859 | 68 | 0 | 10.0 | 22.0 | 0.00 | 0.00 | 0.00 | 18 | 1011.5 |
| 20260507234843 | 69 | 0 | 9.0 | 23.0 | 0.00 | 0.00 | 0.00 | 18 | 1011.6 |
| 20260507233902 | 69 | 0 | 10.0 | 23.0 | 0.00 | 0.00 | 0.00 | 18 | 1011.5 |
| 20260507232842 | 69 | 331 | 8.0 | 22.0 | 0.00 | 0.00 | 0.00 | 17 | 1011.6 |
| 20260507231837 | 69 | 0 | 4.0 | 19.0 | 0.00 | 0.00 | 0.00 | 17 | 1011.7 |
| 20260507230827 | 69 | 0 | 9.0 | 19.0 | 0.00 | 0.00 | 0.00 | 17 | 1011.8 |
| 20260507225851 | 70 | 0 | 6.0 | 18.0 | 0.00 | 0.00 | 0.00 | 17 | 1012.0 |
| 20260507224834 | 70 | 0 | 4.0 | 15.0 | 0.00 | 0.00 | 0.00 | 17 | 1012.1 |
| 20260507223801 | 70 | 0 | 6.0 | 15.0 | 0.00 | 0.00 | 0.00 | 16 | 1012.2 |
| 20260507222817 | 69 | 333 | 4.0 | 1.0 | 0.00 | 0.00 | 0.00 | 17 | 1012.3 |
| 20260507220638 | 70 | 0 | 4.0 | 15.0 | 0.00 | 0.00 | 0.00 | 16 | 1012.7 |
| 20260507215640 | 69 | 229 | 6.0 | 14.0 | 0.00 | 0.00 | 0.00 | 16 | 1012.9 |
| 20260507214640 | 69 | 263 | 4.0 | 13.0 | 0.00 | 0.00 | 0.00 | 16 | 1013.1 |
| 20260507213659 | 69 | 0 | 4.0 | 11.0 | 0.00 | 0.00 | 0.00 | 15 | 1013.4 |
| 20260507211531 | 68 | 254 | 4.0 | 12.0 | 0.00 | 0.00 | 0.00 | 16 | 1013.9 |
| 20260507210522 | 68 | 228 | 3.0 | 18.0 | 0.00 | 0.00 | 0.00 | 16 | 1014.2 |
| 20260507205520 | 68 | 265 | 1.0 | 9.0 | 0.00 | 0.00 | 0.00 | 16 | 1014.5 |
| 20260507204449 | 68 | 233 | 3.0 | 12.0 | 0.00 | 0.00 | 0.00 | 16 | 1014.7 |
| 20260507203420 | 67 | 221 | 1.0 | 12.0 | 0.00 | 0.00 | 0.00 | 16 | 1014.8 |
| 20260507202427 | 67 | 225 | 0.0 | 3.0 | 0.00 | 0.00 | 0.00 | 15 | 1015.0 |
| 20260507200254 | 66 | 246 | 1.0 | 0.0 | 0.00 | 0.00 | 0.00 | 15 | 1015.6 |
| 20260507195252 | 67 | 248 | 4.0 | 0.0 | 0.00 | 0.00 | 0.00 | 15 | 1015.9 |
| 20260507194302 | 66 | 168 | 1.0 | 14.0 | 0.00 | 0.00 | 0.00 | 15 | 1015.9 |
| 20260507193243 | 65 | 229 | 4.0 | 32.0 | 0.00 | 0.00 | 0.00 | 14 | 1016.2 |
| 20260507192239 | 66 | 216 | 4.0 | 32.0 | 0.00 | 0.00 | 0.00 | 16 | 1016.3 |
| 20260507191240 | 65 | 179 | 4.0 | 11.0 | 0.00 | 0.00 | 0.00 | 15 | 1016.6 |
| 20260507190243 | 64 | 174 | 0.0 | 6.0 | 0.00 | 0.00 | 0.00 | 15 | 1016.8 |
| 20260507184143 | 62 | 230 | 1.0 | 13.0 | 0.00 | 0.00 | 0.00 | 15 | 1017.5 |
| 20260507182052 | 63 | 182 | 3.0 | 12.0 | 0.00 | 0.00 | 0.00 | 16 | 1017.7 |
| 20260507181108 | 61 | 178 | 3.0 | 11.0 | 0.00 | 0.00 | 0.00 | 16 | 1017.8 |
| 20260507180054 | 61 | 206 | 0.0 | 5.0 | 0.00 | 0.00 | 0.00 | 17 | 1018.2 |
| 20260507175116 | 60 | 213 | 1.0 | 3.0 | 0.00 | 0.00 | 0.00 | 16 | 1018.5 |
| 20260507171842 | 58 | 209 | 0.0 | 3.0 | 0.00 | 0.01 | 0.00 | 17 | 1019.0 |
| 20260507170837 | 58 | 186 | 0.0 | 3.0 | 0.00 | 0.01 | 0.00 | 19 | 1019.1 |
| 20260507165823 | 57 | 192 | 0.0 | 9.0 | 0.00 | 0.01 | 0.00 | 19 | 1019.2 |
| 20260507164803 | 58 | 186 | 0.0 | 0.0 | 0.00 | 0.01 | 0.00 | 20 | 1019.5 |
| 20260507163828 | 56 | 186 | 0.0 | 0.0 | 0.00 | 0.01 | 0.00 | 19 | 1019.6 |
| 20260507162754 | 55 | 209 | 0.0 | 0.0 | 0.00 | 0.01 | 0.00 | 19 | 1019.9 |
| 20260507161732 | 55 | 213 | 0.0 | 7.0 | 0.00 | 0.01 | 0.00 | 20 | 1020.0 |
| 20260507160718 | 55 | 214 | 0.0 | 0.0 | 0.00 | 0.01 | 0.00 | 20 | 1020.0 |
| 20260507155651 | 54 | 0 | 0.0 | 3.0 | 0.00 | 0.01 | 0.00 | 21 | 1020.0 |
| 20260507152401 | 52 | 351 | 0.0 | 4.0 | 0.00 | 0.01 | 0.00 | 21 | 1020.4 |
| 20260507151350 | 52 | 350 | 0.0 | 1.0 | 0.00 | 0.01 | 0.00 | 23 | 1020.5 |
| 20260507150324 | 51 | 350 | 0.0 | 1.0 | 0.00 | 0.01 | 0.00 | 23 | 1020.5 |
| 20260507145257 | 50 | 350 | 0.0 | 0.0 | 0.00 | 0.01 | 0.00 | 24 | 1020.5 |
| 20260507144320 | 49 | 350 | 0.0 | 0.0 | 0.00 | 0.01 | 0.00 | 25 | 1020.5 |
| 20260507143314 | 49 | 350 | 0.0 | 0.0 | 0.00 | 0.01 | 0.00 | 27 | 1020.6 |
| 20260507142321 | 47 | 350 | 0.0 | 0.0 | 0.00 | 0.01 | 0.00 | 28 | 1020.7 |
| 20260507141343 | 45 | 350 | 0.0 | 0.0 | 0.00 | 0.01 | 0.00 | 30 | 1020.8 |
| 20260507140314 | 43 | 350 | 0.0 | 0.0 | 0.00 | 0.01 | 0.00 | 32 | 1020.7 |
| 20260507135313 | 42 | 350 | 0.0 | 0.0 | 0.00 | 0.01 | 0.00 | 34 | 1020.7 |
| 20260507134334 | 40 | 350 | 0.0 | 0.0 | 0.00 | 0.01 | 0.00 | 37 | 1020.6 |
| 20260507133310 | 38 | 350 | 0.0 | 0.0 | 0.00 | 0.01 | 0.00 | 37 | 1020.5 |
| 20260507131155 | 34 | 350 | 0.0 | 0.0 | 0.00 | 0.01 | 0.00 | 43 | 1020.4 |
| 20260507130129 | 32 | 350 | 0.0 | 0.0 | 0.00 | 0.01 | 0.00 | 45 | 1020.3 |
| 20260507125112 | 30 | 350 | 0.0 | 0.0 | 0.00 | 0.01 | 0.00 | 48 | 1020.4 |
| 20260507122933 | 28 | 350 | 0.0 | 0.0 | 0.00 | 0.01 | 0.00 | 50 | 1020.3 |
| 20260507121952 | 27 | 350 | 0.0 | 0.0 | 0.00 | 0.01 | 0.00 | 51 | 1020.1 |
| 20260507120919 | 26 | 350 | 0.0 | 0.0 | 0.00 | 0.01 | 0.00 | 51 | 1020.0 |
| 20260507114752 | 27 | 350 | 0.0 | 0.0 | 0.00 | 0.01 | 0.00 | 51 | 1019.9 |
| 20260507113802 | 26 | 350 | 0.0 | 0.0 | 0.00 | 0.01 | 0.00 | 53 | 1019.9 |
| 20260507112746 | 27 | 350 | 0.0 | 0.0 | 0.00 | 0.01 | 0.00 | 51 | 1019.8 |
| 20260507111754 | 27 | 350 | 0.0 | 0.0 | 0.00 | 0.01 | 0.00 | 51 | 1019.8 |
| 20260507110806 | 28 | 350 | 0.0 | 0.0 | 0.00 | 0.01 | 0.00 | 51 | 1019.7 |
| 20260507104702 | 27 | 350 | 0.0 | 0.0 | 0.00 | 0.01 | 0.00 | 53 | 1019.8 |
| 20260507103651 | 27 | 350 | 0.0 | 0.0 | 0.00 | 0.01 | 0.00 | 54 | 1019.5 |
| 20260507101508 | 27 | 350 | 0.0 | 0.0 | 0.00 | 0.01 | 0.00 | 54 | 1019.3 |
| 20260507100447 | 28 | 350 | 0.0 | 0.0 | 0.00 | 0.01 | 0.00 | 54 | 1019.3 |
| 20260507095455 | 27 | 350 | 0.0 | 0.0 | 0.00 | 0.01 | 0.00 | 54 | 1019.1 |
| 20260507094443 | 28 | 350 | 0.0 | 0.0 | 0.00 | 0.01 | 0.00 | 53 | 1019.0 |
| 20260507093436 | 28 | 350 | 0.0 | 0.0 | 0.00 | 0.01 | 0.00 | 54 | 1019.1 |
| 20260507092406 | 28 | 350 | 0.0 | 0.0 | 0.00 | 0.01 | 0.00 | 54 | 1019.1 |
| 20260507091416 | 29 | 350 | 0.0 | 0.0 | 0.00 | 0.01 | 0.00 | 53 | 1018.9 |
| 20260507085344 | 30 | 350 | 0.0 | 0.0 | 0.00 | 0.01 | 0.00 | 52 | 1018.6 |
| 20260507084323 | 30 | 350 | 3.0 | 0.0 | 0.00 | 0.01 | 0.00 | 52 | 1018.6 |
| 20260507083317 | 29 | 348 | 6.0 | 11.0 | 0.00 | 0.01 | 0.00 | 54 | 1018.6 |
| 20260507081159 | 28 | 340 | 0.0 | 0.0 | 0.00 | 0.01 | 0.00 | 53 | 1018.6 |
| 20260507075050 | 31 | 340 | 0.0 | 0.0 | 0.00 | 0.01 | 0.00 | 49 | 1018.6 |
| 20260507074039 | 31 | 340 | 0.0 | 0.0 | 0.00 | 0.01 | 0.00 | 49 | 1018.5 |
| 20260507071837 | 31 | 340 | 0.0 | 0.0 | 0.00 | 0.01 | 0.00 | 49 | 1018.5 |
| 20260507070820 | 32 | 340 | 0.0 | 0.0 | 0.00 | 0.01 | 0.00 | 49 | 1018.7 |
| 20260507065811 | 32 | 340 | 0.0 | 0.0 | 0.00 | 0.01 | 0.00 | 48 | 1018.2 |
| 20260507064755 | 32 | 340 | 0.0 | 0.0 | 0.00 | 0.01 | 0.00 | 47 | 1018.3 |
| 20260507063725 | 34 | 340 | 0.0 | 0.0 | 0.00 | 0.01 | 0.00 | 45 | 1018.3 |
| 20260507062748 | 35 | 340 | 0.0 | 3.0 | 0.00 | 0.01 | 0.00 | 42 | 1018.3 |
| 20260507061753 | 36 | 340 | 0.0 | 0.0 | 0.00 | 0.01 | 0.00 | 41 | 1018.3 |
| 20260507060746 | 37 | 340 | 0.0 | 0.0 | 0.00 | 0.01 | 0.00 | 40 | 1018.1 |
| 20260507055738 | 38 | 340 | 0.0 | 0.0 | 0.00 | 0.01 | 0.01 | 38 | 1018.0 |
| 20260507054705 | 39 | 340 | 0.0 | 0.0 | 0.00 | 0.01 | 0.01 | 38 | 1018.0 |
| 20260507053730 | 39 | 340 | 1.0 | 10.0 | 0.00 | 0.01 | 0.01 | 38 | 1017.8 |
| 20260507052725 | 40 | 339 | 4.0 | 11.0 | 0.00 | 0.01 | 0.01 | 36 | 1017.8 |
| 20260507051704 | 40 | 334 | 1.0 | 11.0 | 0.00 | 0.01 | 0.01 | 36 | 1017.6 |
| 20260507050640 | 41 | 336 | 3.0 | 11.0 | 0.00 | 0.01 | 0.01 | 36 | 1017.5 |
| 20260507045605 | 41 | 336 | 1.0 | 13.0 | 0.00 | 0.01 | 0.01 | 35 | 1017.5 |
| 20260507044623 | 41 | 337 | 7.0 | 13.0 | 0.00 | 0.01 | 0.01 | 35 | 1017.4 |